Location: Binningen
(47.7924°N, 8.7261°E)
Time: 18:10:53
(UTC+00:00)

Cosmos 1943 Rocket - Pass Details

Date: 17 May 2021
Orbit: 814 x 842 km, 71.0° (Epoch: 21 June)

Event Time Altitude Azimuth Distance (km) Brightness Sun altitude
Exits shadow 20:14:35 - 171° (S) 2,643 4.3 -10.7°
Reaches altitude 10° 20:15:11 10° 168° (SSE) 2,442 4.1 -10.8°
Maximum altitude 20:20:09 34° 106° (ESE) 1,353 2.8 -11.4°
Drops below altitude 10° 20:25:06 10° 43° (NE) 2,441 4.7 -12.0°
Sets 20:27:44 0° 35° (NE) 3,374 5.5 -12.2°
